FW8607 Weather Reports


time (UTC)temp
F
wind
direction
speed
knots
gust
knots
rain 1hr
in
rain 24hr
in
rain mn
in
humidity
%
barometer
mb
20260904040039 64 248 0.9 4.3 0.00 0.00 0.00 86 1012.0
20260904033019 65 248 3.5 6.1 0.00 0.00 0.00 84 1011.7
20260904030019 66 248 3.5 7.8 0.00 0.00 0.00 82 1011.5
20260904023019 67 248 4.3 7.8 0.00 0.00 0.00 80 1011.5
20260904020019 69 248 5.2 8.7 0.00 0.00 0.00 76 1011.4
20260904013019 71 248 7.0 12.2 0.00 0.00 0.00 74 1011.5
20260904010019 72 248 7.0 14.8 0.00 0.00 0.00 70 1011.6
20260904003018 74 248 7.8 13.9 0.00 0.00 0.00 67 1011.6
20260904000018 75 248 8.7 14.8 0.00 0.00 0.00 61 1011.7
20260903233018 75 248 8.7 15.6 0.00 0.00 0.00 59 1011.7
20260903230038 77 248 8.7 15.6 0.00 0.00 0.00 56 1012.0
20260903223018 77 248 8.7 16.5 0.00 0.00 0.00 59 1012.3
20260903220018 77 248 10.4 18.2 0.00 0.00 0.00 58 1012.5
20260903213018 77 248 10.4 16.5 0.00 0.00 0.00 59 1012.5
20260903210018 78 248 9.6 17.4 0.00 0.00 0.00 59 1012.5
20260903203018 78 248 9.6 18.2 0.00 0.00 0.00 57 1012.5
20260903200018 80 248 8.7 15.6 0.00 0.00 0.00 53 1012.8
20260903193018 81 248 7.0 15.6 0.00 0.00 0.00 50 1013.0
20260903190038 80 270 6.1 11.3 0.00 0.00 0.00 41 1013.4
20260903183017 80 248 4.3 10.4 0.00 0.00 0.00 41 1014.1
20260903180019 77 270 5.2 11.3 0.00 0.00 0.00 48 1014.2
20260903173020 75 270 3.5 9.6 0.00 0.00 0.00 56 1014.3
20260903170020 73 270 3.5 7.8 0.00 0.00 0.00 56 1014.3
20260903163019 71 248 0.9 7.0 0.00 0.00 0.00 60 1014.2
20260903160039 69 90 1.7 6.1 0.00 0.00 0.00 55 1014.3
20260903153019 66 90 0.9 3.5 0.00 0.00 0.00 57 1014.2
20260903150019 63 113 2.6 5.2 0.00 0.00 0.00 65 1014.1
20260903143019 58 90 0.9 5.2 0.00 0.00 0.00 78 1013.9
20260903140019 57 135 3.5 6.1 0.00 0.00 0.00 79 1013.8
20260903133019 57 135 3.5 7.0 0.00 0.00 0.00 81 1013.5
20260903130019 57 135 3.5 7.0 0.00 0.00 0.00 82 1013.5
20260903123019 56 135 3.5 7.0 0.00 0.00 0.00 85 1013.5
20260903120019 57 135 2.6 6.1 0.00 0.00 0.00 88 1013.5
20260903113018 58 135 2.6 4.3 0.00 0.00 0.00 88 1013.7
20260903110039 58 135 2.6 4.3 0.00 0.00 0.00 88 1013.8
20260903103018 58 135 2.6 5.2 0.00 0.00 0.00 88 1013.8
20260903100038 58 158 1.7 6.1 0.00 0.00 0.00 87 1013.8
20260903093019 59 113 1.7 4.3 0.00 0.00 0.00 87 1014.1
20260903090018 61 0.0 0.0 0.00 0.00 0.00 88 1014.5
20260903083018 61 0.0 0.0 0.00 0.00 0.00 87 1014.9
20260903080019 61 158 1.7 4.3 0.00 0.00 0.00 86 1015.1
20260903073018 61 135 1.7 3.5 0.00 0.00 0.00 85 1014.9
20260903070038 62 135 1.7 2.6 0.00 0.00 0.00 85 1014.9
20260903063018 63 0.0 0.0 0.00 0.00 0.00 86 1014.8
20260903060018 63 0.0 0.0 0.00 0.00 0.00 86 1015.0
20260903053018 63 0.0 1.7 0.00 0.00 0.00 84 1014.9
20260903050018 64 248 1.7 2.6 0.00 0.00 0.00 82 1014.9
20260903043018 64 248 1.7 3.5 0.00 0.00 0.00 81 1014.7